Location: Ingoldesthorpe
(52.8667°N, 0.5167°E)
Time: 07:25:26
(UTC+00:00)

Cosmos 2237 Rocket - Pass Details

Date: 19 May 2025
Orbit: 834 x 849 km, 71.0° (Epoch: 18 June)

Event Time Altitude Azimuth Distance (km) Brightness Sun altitude
Rises 23:38:59 0° 327° (NNW) 3,399 6.4 -17.1°
Reaches altitude 10° 23:41:59 10° 342° (NNW) 2,464 5.8 -17.1°
Maximum altitude 23:46:24 23° 33° (NNE) 1,732 4.5 -17.1°
Drops below altitude 10° 23:50:48 10° 85° (E) 2,464 4.7 -17.1°
Sets 23:53:47 0° 100° (E) 3,399 5.2 -17.1°
